Location: Innerarity Island Observatory
(30.3139°N, 87.4867°W)
Time: 04:08:37
(UTC-06:00)

Amateur Radio Satellites - All Passes

Search period start: 14 February 2016 03:38
Search period end: 15 February 2016 03:38
Location: Innerarity Island Observatory, 30.3139°N, 87.4867°W

Satellite Date Start Highest point End Downlink Frequencies (MHz)
Time Altitude Azimuth
ITAMSAT 1 14 Feb 03:38:54 03:42:39 20° 292° (WNW) 03:46:25 435.822/435.867
AUBIESAT-1 14 Feb 03:42:17 03:45:20 24° 103° (ESE) 03:48:33 437.475
AIST 2 14 Feb 03:47:04 03:50:34 27° 249° (WSW) 03:54:03 435.215
MOZHAYETS 4 14 Feb 04:03:26 04:07:17 27° 263° (W) 04:11:10
YUBILEINY 14 Feb 04:04:21 04:11:12 25° 286° (WNW) 04:18:09 435.215
Cosmos 2504 14 Feb 04:31:51 04:40:23 77° 276° (W) 04:49:19 435.465 / 435.565
PHONESAT 2.4 14 Feb 04:41:10 04:44:18 44° 214° (SW) 04:47:24 2401.200-2431.200
SO-50 14 Feb 04:43:55 04:45:58 12° 311° (NW) 04:48:02 436.795
JUGNU 14 Feb 04:44:41 04:48:30 17° 164° (SSE) 04:52:19 437.505
CUBESAT XI-V 14 Feb 04:56:05 05:00:46 85° 258° (WSW) 05:05:30 437.345
AO-7 14 Feb 04:57:14 05:04:25 34° 296° (WNW) 05:11:35 29.400- 29.500
HORYU 2 14 Feb 04:59:44 05:03:32 28° 288° (WNW) 05:07:21 437.375
M-CUBED/EXP-1 PRIME 14 Feb 05:12:08 05:14:11 15° 292° (WNW) 05:16:19 437.505
AUBIESAT-1 14 Feb 05:17:27 05:19:43 16° 292° (WNW) 05:22:03 437.475
O/OREOS (USA 219) 14 Feb 05:32:13 05:35:01 16° 100° (E) 05:37:49 437.305
LilacSat-2 14 Feb 05:38:00 05:41:23 31° 98° (E) 05:44:46 437.200
CUTE-I 14 Feb 05:49:58 05:55:14 54° 101° (E) 06:00:28 437.470
STRAND 1 14 Feb 05:54:01 05:58:50 44° 73° (ENE) 06:03:42 437.568
PRISM 14 Feb 06:03:25 06:05:10 12° 68° (ENE) 06:06:54 437.425
Cubesat XI-IV 14 Feb 06:05:08 06:10:33 78° 103° (ESE) 06:15:55 437.490
SRMSAT 14 Feb 06:30:19 06:33:37 15° 163° (SSE) 06:36:54 437.500
DOVE 4 14 Feb 06:31:48 06:34:06 14° 95° (E) 06:36:24 437.250
JUGNU 14 Feb 06:32:01 06:37:00 28° 174° (S) 06:41:57 437.505
BRITE-PL 14 Feb 06:32:16 06:36:44 84° 102° (ESE) 06:40:56 437.365/2234.400
Cosmos 2504 14 Feb 06:32:36 06:35:07 11° 294° (WNW) 06:37:41 435.465 / 435.565
O/OREOS (USA 219) 14 Feb 07:10:05 07:14:04 32° 293° (WNW) 07:18:07 437.305
GOMX 1 14 Feb 07:13:18 07:17:31 67° 283° (WNW) 07:21:37 467.674
LilacSat-2 14 Feb 07:13:48 07:15:22 12° 290° (WNW) 07:16:56 437.200
SEEDS 14 Feb 07:17:43 07:20:09 15° 94° (E) 07:22:33 437.485
CUTE 1.7 + AOD 2 14 Feb 07:19:10 07:22:29 22° 96° (E) 07:25:48 437.475
Cosmos 2499 14 Feb 07:30:08 07:34:58 16° 81° (E) 07:39:50 435.465 / 435.565
CUTE-I 14 Feb 07:31:49 07:34:46 15° 294° (WNW) 07:37:42 437.470
GONETS M04 14 Feb 07:32:11 07:40:14 45° 89° (E) 07:48:20
STRAND 1 14 Feb 07:35:07 07:38:08 16° 265° (W) 07:41:10 437.568
PRISM 14 Feb 07:36:11 07:40:05 39° 261° (W) 07:44:01 437.425
Cubesat XI-IV 14 Feb 07:49:14 07:49:52 10° 296° (WNW) 07:50:31 437.490
HO-68 14 Feb 07:49:53 07:56:57 58° 102° (ESE) 08:03:59 435.675
PCSat 14 Feb 07:55:31 07:58:27 15° 104° (ESE) 08:01:22 145.827
CUBEBUG 2 14 Feb 08:01:02 08:04:00 18° 96° (E) 08:07:01 437.445
AO-85 14 Feb 08:02:02 08:06:57 43° 111° (ESE) 08:12:05 145.980
CANX-2 14 Feb 08:04:17 08:08:36 84° 280° (W) 08:12:54 2200.000
DOVE 4 14 Feb 08:08:14 08:11:51 29° 287° (WNW) 08:15:27 437.250
SRMSAT 14 Feb 08:17:24 08:22:14 26° 172° (S) 08:27:04 437.500
JUGNU 14 Feb 08:20:30 08:25:34 29° 184° (S) 08:30:35 437.505
CINEMA 3 14 Feb 08:26:06 08:30:14 63° 284° (WNW) 08:34:28 145.822/145.860
COMPASS 1 14 Feb 08:28:36 08:32:51 88° 99° (E) 08:37:04 437.405
ZACube-1 14 Feb 08:34:02 08:37:22 22° 97° (E) 08:40:45 437.345
AIST 1 14 Feb 08:38:37 08:40:34 13° 87° (E) 08:42:30
FUNcube-1 14 Feb 08:40:18 08:43:51 24° 97° (E) 08:47:26 145.935
SEEDS 14 Feb 08:52:03 08:55:52 33° 286° (WNW) 08:59:41 437.485
AAUSAT CUBESAT 2 14 Feb 08:52:36 08:56:43 56° 284° (WNW) 09:00:50 437.432
CUTE 1.7 + AOD 2 14 Feb 08:54:49 08:58:12 23° 288° (WNW) 09:01:35 437.475
ANTELSAT 14 Feb 09:04:49 09:08:39 32° 73° (ENE) 09:12:27 437.575/2403.000
Oscar 11 14 Feb 09:05:14 09:09:35 73° 102° (ESE) 09:13:55 145.826/435.025
TIGRISAT 14 Feb 09:09:53 09:13:48 35° 74° (ENE) 09:17:40 435.000
Cosmos 2499 14 Feb 09:18:14 09:26:56 82° 276° (W) 09:35:52 435.465 / 435.565
UWE-3 14 Feb 09:26:42 09:30:52 52° 284° (WNW) 09:35:07 435.000/436.395/437.385
DELFI C3 14 Feb 09:27:29 09:31:31 70° 100° (E) 09:35:33 145.870
GONETS M04 14 Feb 09:29:41 09:37:05 31° 284° (WNW) 09:44:34
PCSat 14 Feb 09:36:02 09:41:18 53° 297° (WNW) 09:46:37 145.827
CUBEBUG 2 14 Feb 09:36:58 09:40:34 27° 287° (WNW) 09:44:14 437.445
HO-68 14 Feb 09:38:52 09:44:05 22° 296° (WNW) 09:49:18 435.675
POPSAT HIP 1 14 Feb 09:40:08 09:42:56 17° 70° (ENE) 09:45:42 437.405
DUCHIFAT 1 14 Feb 09:40:59 09:43:37 16° 70° (ENE) 09:46:15 145.980
NANOSAT C BR1 14 Feb 09:41:38 09:44:26 18° 70° (ENE) 09:47:15 145.865
AO-85 14 Feb 09:43:32 09:47:38 22° 307° (NW) 09:51:52 145.980
HUMSAT D 14 Feb 09:45:32 09:49:32 42° 99° (E) 09:53:34 437.325/437.525
QB50P1 14 Feb 09:51:35 09:55:01 24° 72° (ENE) 09:58:25 145.935-145.965
UNISAT 6 14 Feb 09:56:03 10:00:16 53° 259° (W) 10:04:27 437.425
RS-15 14 Feb 09:58:51 10:09:43 71° 112° (ESE) 10:21:09 29.354- 29.394
ESTCUBE 1 14 Feb 10:02:39 10:04:16 12° 94° (E) 10:05:51 437.505/2401.250
SRMSAT 14 Feb 10:05:52 10:10:56 30° 182° (S) 10:15:59 437.500
JUGNU 14 Feb 10:09:50 10:14:03 20° 193° (SSW) 10:18:15 437.505
ZACube-1 14 Feb 10:10:08 10:13:31 23° 288° (WNW) 10:16:59 437.345
AIST 1 14 Feb 10:13:41 10:17:45 37° 280° (W) 10:21:50
50 SAT 14 Feb 10:16:09 10:18:40 17° 96° (E) 10:21:11 437.505
FUNcube-1 14 Feb 10:16:44 10:19:55 21° 288° (WNW) 10:23:09 145.935
BUGSAT 1 14 Feb 10:20:22 10:23:47 24° 72° (ENE) 10:27:10 437.445
VELOX 1 14 Feb 10:37:43 10:41:27 27° 98° (E) 10:45:09 145.980
UKube-1 14 Feb 10:40:25 10:44:00 25° 98° (E) 10:47:34 .
ANTELSAT 14 Feb 10:42:57 10:45:24 15° 265° (W) 10:47:50 437.575/2403.000
POLYITAN 1 14 Feb 10:45:23 10:49:35 65° 260° (W) 10:53:45 437.675
QB50P2 14 Feb 10:45:47 10:49:58 62° 260° (W) 10:54:09 145.880/145.840
TIGRISAT 14 Feb 10:48:24 10:50:33 13° 265° (W) 10:52:40 435.000
AISAT 14 Feb 10:54:54 10:59:08 47° 100° (E) 11:03:20 437.250
CUBEBUG 1 14 Feb 11:00:02 11:04:08 42° 99° (E) 11:08:14 437.445
DX 1 14 Feb 11:00:53 11:05:09 57° 101° (E) 11:09:24 434.975-435.025
POPSAT HIP 1 14 Feb 11:14:50 11:18:28 28° 262° (W) 11:22:07 437.405
DUCHIFAT 1 14 Feb 11:15:22 11:19:03 29° 262° (W) 11:22:45 145.980
NANOSAT C BR1 14 Feb 11:16:20 11:19:57 27° 262° (W) 11:23:33 145.865
Cosmos 2499 14 Feb 11:17:40 11:21:14 13° 292° (WNW) 11:24:50 435.465 / 435.565
DANDE 14 Feb 11:19:10 11:21:11 12° 63° (ENE) 11:23:03 436.750
HUMSAT D 14 Feb 11:23:13 11:24:46 12° 291° (WNW) 11:26:20 437.325/437.525
QB50P1 14 Feb 11:27:36 11:30:41 20° 264° (W) 11:33:47 145.935-145.965
ESTCUBE 1 14 Feb 11:36:53 11:41:14 46° 286° (WNW) 11:45:33 437.505/2401.250
SO-50 14 Feb 11:38:52 11:41:35 15° 51° (NE) 11:44:16 436.795
CUSAT 1 14 Feb 11:43:32 11:47:56 38° 76° (ENE) 11:51:18 437.405
50 SAT 14 Feb 11:49:34 11:52:34 22° 288° (WNW) 11:55:35 437.505
Oscar 19 14 Feb 11:51:18 11:55:42 29° 71° (ENE) 12:00:06 437.125/150
SRMSAT 14 Feb 11:55:09 11:59:36 22° 192° (SSW) 12:04:03 437.500
BUGSAT 1 14 Feb 11:56:03 11:59:04 19° 264° (W) 12:02:05 437.445
TISAT 1 14 Feb 12:06:16 12:09:50 27° 98° (E) 12:13:22 437.305
JAS-2 14 Feb 12:11:47 12:18:53 44° 72° (ENE) 12:25:23 435.910
RS-15 14 Feb 12:13:40 12:23:01 30° 313° (NW) 12:32:51 29.354- 29.394
VELOX 1 14 Feb 12:14:32 12:17:42 20° 290° (WNW) 12:20:51 145.980
SPROUT 14 Feb 12:16:14 12:20:27 65° 283° (WNW) 12:24:39 437.525
UKube-1 14 Feb 12:16:43 12:19:51 20° 290° (WNW) 12:22:58 .
YUBILEINY 14 Feb 12:24:36 12:30:41 20° 72° (ENE) 12:36:42 435.215
ISS 14 Feb 12:28:40 12:31:44 41° 130° (SE) 12:34:49 145.825
AISAT 14 Feb 12:33:40 12:35:09 12° 293° (WNW) 12:36:38 437.250
CUBEBUG 1 14 Feb 12:38:14 12:40:00 12° 292° (WNW) 12:41:47 437.445
SWISSCUBE 14 Feb 12:55:44 12:59:06 19° 96° (E) 13:02:26 437.505
DANDE 14 Feb 12:59:23 13:05:03 54° 268° (W) 13:09:14 436.750
Gurwin Techsat 1B 14 Feb 13:02:29 13:07:38 54° 74° (ENE) 13:12:49 435.225
ITAMSAT 1 14 Feb 13:11:11 13:15:45 32° 71° (ENE) 13:20:19 435.822/435.867
SO-50 14 Feb 13:17:48 13:22:23 50° 246° (WSW) 13:26:46 436.795
Oscar 19 14 Feb 13:30:41 13:34:55 25° 263° (W) 13:39:09 437.125/150
ITUPSAT 1 14 Feb 13:34:15 13:38:53 46° 100° (E) 13:43:29 437.325
BEESAT 14 Feb 13:39:12 13:43:54 54° 101° (E) 13:48:35 436.000
TISAT 1 14 Feb 13:42:30 13:45:15 17° 290° (WNW) 13:47:59 437.305
SRMSAT 14 Feb 13:46:53 13:48:11 11° 200° (SSW) 13:49:28 437.500
AO-7 14 Feb 13:57:00 14:04:27 37° 65° (ENE) 14:11:53 29.400- 29.500
JAS-2 14 Feb 13:57:16 14:03:47 30° 262° (W) 14:09:55 435.910
ISS 14 Feb 14:06:26 14:08:18 14° 324° (NW) 14:10:11 145.825
Cosmos 2491 14 Feb 14:18:48 14:27:30 79° 93° (E) 14:36:12 435.465 / 435.565
YUBILEINY 14 Feb 14:19:19 14:28:04 69° 268° (W) 14:36:44 435.215
M-CUBED/EXP-1 PRIME 14 Feb 14:20:45 14:22:09 12° 67° (ENE) 14:23:32 437.505
AUBIESAT-1 14 Feb 14:26:10 14:27:14 11° 66° (ENE) 14:28:17 437.475
BEESAT 3 14 Feb 14:28:46 14:32:03 25° 111° (ESE) 14:35:22 437.485
SWISSCUBE 14 Feb 14:32:36 14:36:53 33° 288° (WNW) 14:41:09 437.505
Cosmos 2504 14 Feb 14:33:18 14:40:18 29° 74° (ENE) 14:46:51 435.465 / 435.565
Gurwin Techsat 1B 14 Feb 14:45:16 14:47:48 13° 266° (W) 14:50:21 435.225
ITAMSAT 1 14 Feb 14:51:09 14:55:09 23° 263° (W) 14:59:13 435.822/435.867
STARS 14 Feb 15:01:23 15:05:03 26° 98° (E) 15:08:41 437.465
BEESAT 2 14 Feb 15:01:58 15:05:43 40° 113° (ESE) 15:09:29 435.950
ITUPSAT 1 14 Feb 15:13:44 15:16:16 14° 293° (WNW) 15:18:48 437.325
BEESAT 14 Feb 15:19:18 15:21:10 12° 294° (WNW) 15:23:02 436.000
KKS-1 14 Feb 15:31:51 15:36:14 62° 284° (WNW) 15:40:35 437.445
O/OREOS (USA 219) 14 Feb 15:47:44 15:50:08 14° 62° (ENE) 15:52:31 437.305
AO-7 14 Feb 15:49:17 15:56:59 41° 259° (W) 16:04:44 29.400- 29.500
HORYU 2 14 Feb 15:51:22 15:55:44 63° 259° (WSW) 16:00:06 437.375
M-CUBED/EXP-1 PRIME 14 Feb 15:53:26 15:56:34 27° 256° (WSW) 15:59:34 437.505
AUBIESAT-1 14 Feb 15:58:22 16:01:34 29° 256° (WSW) 16:04:37 437.475
AIST 2 14 Feb 16:02:02 16:04:29 15° 109° (ESE) 16:06:55 435.215
MOZHAYETS 4 14 Feb 16:03:16 16:07:55 75° 284° (WNW) 16:12:33
BEESAT 3 14 Feb 16:06:52 16:09:45 19° 305° (NW) 16:12:39 437.485
Cosmos 2491 14 Feb 16:20:02 16:25:06 17° 290° (WNW) 16:30:13 435.465 / 435.565
Cosmos 2504 14 Feb 16:26:02 16:33:47 45° 272° (W) 16:41:00 435.465 / 435.565
STARS 14 Feb 16:38:02 16:41:12 20° 290° (WNW) 16:44:23 437.465
BEESAT 2 14 Feb 16:41:45 16:43:45 13° 307° (NW) 16:45:45 435.950
RS-15 14 Feb 16:57:39 17:02:43 13° 28° (NNE) 17:07:48 29.354- 29.394
CUBESAT XI-V 14 Feb 16:58:45 17:03:05 37° 98° (E) 17:07:23 437.345
CUTE-I 14 Feb 17:06:06 17:11:13 50° 73° (ENE) 17:16:22 437.470
Cubesat XI-IV 14 Feb 17:21:21 17:26:39 73° 75° (ENE) 17:31:59 437.490
O/OREOS (USA 219) 14 Feb 17:25:21 17:29:42 43° 256° (WSW) 17:34:02 437.305
DOVE 4 14 Feb 17:33:33 17:34:27 10° 68° (ENE) 17:35:19 437.250
BRITE-PL 14 Feb 17:35:38 17:41:11 55° 75° (ENE) 17:46:34 437.365/2234.400
AIST 2 14 Feb 17:38:53 17:42:39 33° 302° (WNW) 17:46:26 435.215
LilacSat-2 14 Feb 17:48:05 17:51:49 55° 260° (W) 17:55:33 437.200
GONETS M04 14 Feb 17:51:35 17:56:27 16° 70° (ENE) 18:01:16
STRAND 1 14 Feb 18:10:49 18:14:59 25° 97° (E) 18:19:08 437.568
HO-68 14 Feb 18:13:31 18:18:58 24° 64° (ENE) 18:24:26 435.675
GOMX 1 14 Feb 18:14:17 18:19:38 68° 77° (ENE) 18:24:45 467.674
AO-85 14 Feb 18:20:07 18:25:06 89° 64° (ENE) 18:29:35 145.980
PCSat 14 Feb 18:29:48 18:34:47 36° 60° (ENE) 18:39:43 145.827
CUBESAT XI-V 14 Feb 18:37:13 18:40:07 16° 291° (WNW) 18:42:59 437.345
CUTE-I 14 Feb 18:48:33 18:51:27 15° 266° (W) 18:54:23 437.470
CANX-2 14 Feb 18:51:38 18:55:21 31° 73° (ENE) 18:59:05 2200.000
DOVE 4 14 Feb 19:06:35 19:11:38 66° 259° (W) 19:16:26 437.250
RS-15 14 Feb 19:07:26 19:19:11 49° 56° (NE) 19:30:56 29.354- 29.394
COMPASS 1 14 Feb 19:14:12 19:17:40 26° 73° (ENE) 19:21:11 437.405
BRITE-PL 14 Feb 19:16:31 19:19:47 16° 266° (W) 19:23:00 437.365/2234.400
Cosmos 2499 14 Feb 19:18:49 19:25:11 25° 73° (ENE) 19:31:10 435.465 / 435.565
CINEMA 3 14 Feb 19:21:44 19:26:15 57° 76° (ENE) 19:30:34 145.822/145.860
PRISM 14 Feb 19:23:29 19:27:25 41° 100° (E) 19:31:18 437.425
AAUSAT CUBESAT 2 14 Feb 19:37:07 19:41:00 41° 75° (ENE) 19:44:55 437.432
SEEDS 14 Feb 19:37:26 19:41:36 78° 78° (ENE) 19:45:48 437.485
CUTE 1.7 + AOD 2 14 Feb 19:40:45 19:44:55 67° 259° (W) 19:49:08 437.475
GONETS M04 14 Feb 19:45:17 19:54:07 83° 267° (W) 20:02:59
STRAND 1 14 Feb 19:49:39 19:54:04 29° 289° (WNW) 19:58:28 437.568
Oscar 11 14 Feb 19:54:46 19:58:20 26° 72° (ENE) 20:01:55 145.826/435.025
GOMX 1 14 Feb 19:56:40 19:57:54 11° 267° (W) 19:59:08 467.674
HO-68 14 Feb 19:59:14 20:06:10 53° 258° (WSW) 20:13:10 435.675
DELFI C3 14 Feb 20:09:10 20:11:55 18° 71° (ENE) 20:14:41 145.870
PCSat 14 Feb 20:13:43 20:17:53 23° 254° (WSW) 20:22:02 145.827
UWE-3 14 Feb 20:17:56 20:22:06 58° 76° (ENE) 20:26:12 435.000/436.395/437.385
AIST 1 14 Feb 20:26:46 20:30:30 28° 79° (E) 20:34:13
CUBEBUG 2 14 Feb 20:28:45 20:33:01 67° 258° (WSW) 20:37:13 437.445
CANX-2 14 Feb 20:28:49 20:31:14 15° 266° (W) 20:33:39 2200.000
HUMSAT D 14 Feb 20:33:05 20:35:12 14° 69° (ENE) 20:37:18 437.325/437.525
ISS 14 Feb 20:36:58 20:40:01 37° 42° (NE) 20:43:03 145.825
COMPASS 1 14 Feb 20:50:27 20:53:12 17° 265° (W) 20:55:57 437.405
ZACube-1 14 Feb 20:59:29 21:03:37 59° 259° (W) 21:07:44 437.345
PRISM 14 Feb 21:00:51 21:02:19 12° 292° (WNW) 21:03:47 437.425
ANTELSAT 14 Feb 21:04:13 21:05:26 11° 94° (E) 21:06:39 437.575/2403.000
FUNcube-1 14 Feb 21:05:41 21:09:46 52° 260° (W) 21:13:48 145.935
TIGRISAT 14 Feb 21:08:42 21:10:24 12° 94° (E) 21:12:06 435.000
Cosmos 2499 14 Feb 21:10:56 21:18:33 48° 271° (W) 21:25:38 435.465 / 435.565
PHONESAT 2.4 14 Feb 21:15:12 21:18:26 60° 147° (SSE) 21:21:40 2401.200-2431.200
AAUSAT CUBESAT 2 14 Feb 21:15:45 21:16:38 11° 267° (W) 21:17:32 437.432
RS-15 14 Feb 21:20:13 21:31:25 44° 253° (WSW) 21:42:38 29.354- 29.394
VELOX 1 14 Feb 21:31:14 21:33:12 13° 68° (ENE) 21:35:10 145.980
Oscar 11 14 Feb 21:31:21 21:34:23 19° 265° (W) 21:37:26 145.826/435.025
UKube-1 14 Feb 21:31:49 21:33:02 11° 67° (ENE) 21:34:15 .
DELFI C3 14 Feb 21:43:27 21:46:38 23° 264° (W) 21:49:50 145.870
GONETS M04 14 Feb 21:47:11 21:49:32 11° 281° (W) 21:51:54
AISAT 14 Feb 21:47:23 21:50:45 21° 70° (ENE) 21:54:07 437.250
CUBEBUG 1 14 Feb 21:51:15 21:54:18 18° 70° (ENE) 21:57:20 437.445
DX 1 14 Feb 21:51:16 21:54:47 24° 71° (ENE) 21:58:19 434.975-435.025
UNISAT 6 14 Feb 21:53:06 21:57:22 46° 100° (E) 22:01:43 437.425
AIST 1 14 Feb 22:05:15 22:07:48 15° 272° (W) 22:10:19
HUMSAT D 14 Feb 22:06:51 22:10:31 32° 262° (W) 22:14:11 437.325/437.525
ISS 14 Feb 22:14:49 22:16:09 12° 234° (SW) 22:17:28 145.825
50 SAT 14 Feb 22:23:12 22:26:52 70° 76° (ENE) 22:30:34 437.505
ESTCUBE 1 14 Feb 22:30:11 22:34:42 78° 76° (ENE) 22:39:14 437.505/2401.250
POLYITAN 1 14 Feb 22:36:24 22:40:07 30° 98° (E) 22:43:50 437.675
QB50P2 14 Feb 22:36:44 22:40:30 31° 98° (E) 22:44:16 145.880/145.840
ANTELSAT 14 Feb 22:38:02 22:42:17 48° 285° (WNW) 22:46:37 437.575/2403.000
TIGRISAT 14 Feb 22:43:00 22:47:11 44° 285° (WNW) 22:51:27 435.000
PHONESAT 2.4 14 Feb 22:53:05 22:55:50 24° 342° (NNW) 22:58:34 2401.200-2431.200
TISAT 1 14 Feb 22:55:29 22:56:02 10° 67° (ENE) 22:56:36 437.305
CUSAT 1 14 Feb 22:59:32 23:02:13 12° 82° (E) 23:04:52 437.405
SPROUT 14 Feb 23:04:08 23:08:12 43° 74° (ENE) 23:12:16 437.525
UKube-1 14 Feb 23:04:26 23:08:36 48° 260° (W) 23:12:49 .
POPSAT HIP 1 14 Feb 23:04:38 23:08:50 70° 101° (E) 23:13:02 437.405
DUCHIFAT 1 14 Feb 23:04:40 23:08:48 64° 101° (E) 23:12:58 145.980
VELOX 1 14 Feb 23:05:00 23:09:15 44° 260° (W) 23:13:31 145.980
NANOSAT C BR1 14 Feb 23:05:46 23:09:58 71° 103° (ESE) 23:14:07 145.865
QB50P1 14 Feb 23:16:44 23:20:56 79° 284° (WNW) 23:25:09 145.935-145.965
AISAT 14 Feb 23:23:20 23:27:03 26° 263° (W) 23:30:46 437.250
CUBEBUG 1 14 Feb 23:26:27 23:30:19 29° 262° (W) 23:34:12 437.445
DX 1 14 Feb 23:27:29 23:30:51 22° 263° (W) 23:34:14 434.975-435.025
UNISAT 6 14 Feb 23:31:58 23:33:40 12° 292° (WNW) 23:35:22 437.425
BUGSAT 1 14 Feb 23:42:19 23:46:21 85° 279° (W) 23:50:21 437.445
SWISSCUBE 14 Feb 23:58:32 00:00:11 12° 66° (ENE) 00:01:51 437.505
Oscar 19 15 Feb 00:09:34 00:12:36 16° 95° (E) 00:15:39 437.125/150
POLYITAN 1 15 Feb 00:13:04 00:15:39 16° 290° (WNW) 00:18:14 437.675
QB50P2 15 Feb 00:13:32 00:16:00 15° 291° (WNW) 00:18:29 145.880/145.840
DANDE 15 Feb 00:15:18 00:22:03 33° 87° (E) 00:29:16 436.750
TISAT 1 15 Feb 00:27:08 00:31:13 48° 260° (W) 00:35:19 437.305
BEESAT 3 15 Feb 00:28:38 00:32:21 38° 60° (ENE) 00:36:00 437.485
PHONESAT 2.4 15 Feb 00:32:01 00:33:48 14° 359° (N) 00:35:34 2401.200-2431.200
CUSAT 1 15 Feb 00:35:24 00:43:22 79° 95° (E) 00:51:21 437.405
ITUPSAT 1 15 Feb 00:35:45 00:39:47 28° 71° (ENE) 00:43:50 437.325
Cosmos 2491 15 Feb 00:37:09 00:44:32 29° 75° (ENE) 00:51:52 435.465 / 435.565
BEESAT 15 Feb 00:40:14 00:44:26 32° 72° (ENE) 00:48:38 436.000
SPROUT 15 Feb 00:43:04 00:44:18 11° 266° (W) 00:45:32 437.525
BEESAT 2 15 Feb 01:03:01 01:06:58 63° 61° (ENE) 01:10:53 435.950
JAS-2 15 Feb 01:13:03 01:18:13 51° 100° (E) 01:23:14 435.910
YUBILEINY 15 Feb 01:17:57 01:25:01 28° 85° (E) 01:32:06 435.215
Gurwin Techsat 1B 15 Feb 01:24:46 01:29:37 35° 98° (E) 01:34:25 435.225
ITAMSAT 1 15 Feb 01:30:30 01:34:05 18° 95° (E) 01:37:39 435.822/435.867
SWISSCUBE 15 Feb 01:32:48 01:37:26 55° 259° (W) 01:42:09 437.505
Oscar 19 15 Feb 01:47:13 01:52:04 44° 287° (WNW) 01:56:53 437.125/150
SO-50 15 Feb 01:47:28 01:50:31 17° 108° (ESE) 01:53:35 436.795
STARS 15 Feb 01:54:32 01:56:11 12° 67° (ENE) 01:57:50 437.465
DANDE 15 Feb 01:57:07 02:04:37 47° 283° (WNW) 02:12:45 436.750
AIST 2 15 Feb 02:05:39 02:09:08 26° 57° (ENE) 02:12:37 435.215
AO-7 15 Feb 02:07:12 02:11:34 15° 94° (E) 02:15:54 29.400- 29.500
BEESAT 3 15 Feb 02:08:25 02:09:40 11° 252° (WSW) 02:10:55 437.485
PHONESAT 2.4 15 Feb 02:09:15 02:11:49 21° 16° (NNE) 02:14:21 2401.200-2431.200
ITUPSAT 1 15 Feb 02:13:51 02:17:32 22° 264° (W) 02:21:14 437.325
BEESAT 15 Feb 02:18:50 02:22:11 19° 264° (W) 02:25:34 436.000
CUSAT 1 15 Feb 02:20:53 02:26:12 19° 289° (WNW) 02:31:27 437.405
KKS-1 15 Feb 02:23:56 02:28:18 56° 75° (ENE) 02:32:40 437.445
Cosmos 2491 15 Feb 02:33:12 02:41:28 48° 271° (W) 02:49:46 435.465 / 435.565
MOZHAYETS 4 15 Feb 02:59:17 03:03:41 51° 75° (ENE) 03:08:08
JAS-2 15 Feb 03:00:16 03:02:46 14° 295° (WNW) 03:05:15 435.910
Cosmos 2504 15 Feb 03:03:28 03:10:32 30° 85° (E) 03:17:49 435.465 / 435.565
Gurwin Techsat 1B 15 Feb 03:05:15 03:09:17 22° 291° (WNW) 03:13:17 435.225
ITAMSAT 1 15 Feb 03:08:45 03:13:37 40° 288° (WNW) 03:18:27 435.822/435.867
YUBILEINY 15 Feb 03:12:51 03:21:16 50° 280° (W) 03:29:47 435.215
SO-50 15 Feb 03:25:59 03:30:37 43° 301° (WNW) 03:35:19 436.795
STARS 15 Feb 03:27:54 03:32:07 45° 260° (W) 03:36:19 437.465
